QPF
0.05 0.07 0.09 0.10 0.13 0.13 0.08 0.05 0.06 0.05 0.05 0.04 0.04 0.04 0.04 0.05 0.04 0.03 0.04 0.04 0.04 0.06 0.07 0.06 0.04 0.04 0.04 0.04 0.04 0.04 0.04 0.04 0.04 0.04 0.03 0.03 0.04 0.05 0.03 0.02 0.01 0.01 0.02
0.03 0.03 0.04 0.09 0.14 0.10 0.07 0.05 0.05 0.05 0.06 0.05 0.06 0.06 0.06 0.06 0.05 0.04 0.05 0.05 0.04 0.04 0.07 0.07 0.06 0.05 0.05 0.04 0.04 0.05 0.05 0.04 0.03 0.03 0.05 0.06 0.07 0.08 0.04 0.02 0.01 0.01 0.01
0.02 0.02 0.02 0.05 0.06 0.05 0.06 0.06 0.05 0.05 0.08 0.09 0.08 0.06 0.05 0.04 0.04 0.04 0.05 0.04 0.03 0.04 0.04 0.06 0.05 0.05 0.05 0.05 0.06 0.05 0.05 0.04 0.03 0.05 0.06 0.06 0.06 0.06 0.04 0.03 0.01 0.01 0.01
0.03 0.03 0.02 0.03 0.04 0.05 0.06 0.06 0.05 0.05 0.07 0.08 0.07 0.08 0.08 0.07 0.06 0.09 0.07 0.05 0.03 0.03 0.03 0.03 0.04 0.07 0.06 0.05 0.05 0.05 0.06 0.06 0.05 0.06 0.07 0.06 0.05 0.04 0.04 0.04 0.02 0.01 0.01
0.03 0.03 0.04 0.05 0.08 0.07 0.06 0.08 0.06 0.06 0.07 0.09 0.10 0.09 0.08 0.07 0.07 0.09 0.08 0.06 0.05 0.03 0.02 0.02 0.03 0.05 0.05 0.05 0.04 0.05 0.06 0.05 0.06 0.07 0.07 0.07 0.05 0.03 0.02 0.02 0.01 0.01 0.00
0.02 0.03 0.07 0.07 0.07 0.08 0.07 0.07 0.06 0.06 0.05 0.06 0.08 0.07 0.08 0.08 0.07 0.07 0.07 0.07 0.05 0.03 0.03 0.02 0.02 0.03 0.04 0.05 0.06 0.07 0.07 0.06 0.05 0.05 0.04 0.04 0.03 0.02 0.02 0.01 0.01 0.00 0.00
0.02 0.03 0.04 0.05 0.05 0.06 0.07 0.08 0.08 0.07 0.05 0.05 0.08 0.10 0.11 0.12 0.11 0.08 0.05 0.05 0.04 0.03 0.03 0.03 0.02 0.03 0.04 0.06 0.06 0.06 0.06 0.04 0.04 0.03 0.02 0.02 0.02 0.02 0.02 0.02 0.01 0.01 0.00
0.03 0.04 0.04 0.04 0.04 0.06 0.08 0.09 0.09 0.09 0.07 0.08 0.12 0.14 0.12 0.09 0.08 0.07 0.05 0.04 0.04 0.03 0.03 0.03 0.02 0.03 0.05 0.06 0.06 0.04 0.03 0.02 0.02 0.02 0.02 0.02 0.01 0.01 0.01 0.02 0.02 0.01 0.01
0.04 0.04 0.04 0.04 0.04 0.06 0.07 0.07 0.08 0.09 0.09 0.12 0.13 0.10 0.07 0.06 0.05 0.04 0.04 0.03 0.04 0.04 0.04 0.03 0.02 0.03 0.04 0.05 0.05 0.03 0.01 0.01 0.01 0.01 0.01 0.01 0.01 0.01 0.01 0.02 0.02 0.02 0.01
0.03 0.02 0.03 0.04 0.05 0.05 0.06 0.06 0.07 0.09 0.09 0.08 0.08 0.07 0.07 0.05 0.03 0.03 0.03 0.03 0.03 0.03 0.04 0.04 0.04 0.03 0.03 0.03 0.03 0.02 0.01 0.01 0.01 0.01 0.01 0.01 0.01 0.01 0.02 0.03 0.02 0.01 0.01
0.03 0.02 0.01 0.02 0.03 0.04 0.04 0.03 0.04 0.06 0.08 0.07 0.07 0.07 0.05 0.03 0.03 0.03 0.03 0.02 0.03 0.03 0.03 0.03 0.03 0.02 0.02 0.03 0.02 0.02 0.02 0.01 0.01 0.01 0.01 0.00 0.01 0.01 0.01 0.02 0.02 0.02 0.01
0.03 0.02 0.01 0.01 0.01 0.02 0.02 0.02 0.03 0.04 0.04 0.05 0.06 0.05 0.04 0.04 0.03 0.02 0.02 0.02 0.02 0.03 0.04 0.03 0.02 0.02 0.02 0.02 0.02 0.02 0.02 0.01 0.01 0.01 0.01 0.01 0.01 0.01 0.02 0.02 0.01 0.01 0.01
0.02 0.02 0.01 0.01 0.01 0.01 0.01 0.02 0.02 0.03 0.03 0.04 0.06 0.06 0.06 0.04 0.02 0.01 0.02 0.02 0.02 0.03 0.04 0.04 0.03 0.03 0.03 0.02 0.02 0.01 0.01 0.01 0.01 0.01 0.01 0.01 0.01 0.02 0.02 0.02 0.02 0.02 0.02
0.02 0.02 0.02 0.01 0.01 0.01 0.02 0.02 0.01 0.02 0.02 0.03 0.05 0.05 0.05 0.04 0.02 0.02 0.02 0.02 0.02 0.02 0.04 0.04 0.05 0.05 0.04 0.03 0.02 0.02 0.01 0.01 0.01 0.01 0.01 0.02 0.02 0.02 0.01 0.01 0.02 0.02 0.02
0.01 0.02 0.02 0.01 0.01 0.01 0.02 0.02 0.02 0.02 0.02 0.03 0.04 0.05 0.05 0.05 0.03 0.02 0.02 0.02 0.01 0.02 0.03 0.04 0.04 0.05 0.04 0.03 0.02 0.01 0.01 0.01 0.01 0.01 0.01 0.01 0.02 0.01 0.02 0.01 0.01 0.02 0.01
0.02 0.02 0.02 0.02 0.02 0.03 0.02 0.02 0.02 0.02 0.03 0.03 0.04 0.04 0.04 0.04 0.03 0.02 0.02 0.01 0.02 0.02 0.03 0.04 0.04 0.03 0.03 0.03 0.03 0.02 0.01 0.01 0.01 0.01 0.01 0.01 0.01 0.02 0.03 0.02 0.02 0.02 0.02
0.01 0.01 0.02 0.03 0.03 0.03 0.02 0.02 0.02 0.02 0.03 0.02 0.03 0.04 0.04 0.03 0.03 0.03 0.02 0.02 0.02 0.02 0.03 0.03 0.03 0.03 0.02 0.04 0.04 0.03 0.02 0.01 0.01 0.01 0.01 0.01 0.02 0.03 0.03 0.03 0.03 0.03 0.02
0.01 0.01 0.02 0.02 0.04 0.04 0.03 0.03 0.02 0.02 0.02 0.02 0.02 0.03 0.03 0.03 0.03 0.03 0.03 0.03 0.02 0.02 0.01 0.02 0.03 0.03 0.03 0.04 0.04 0.04 0.03 0.02 0.01 0.01 0.01 0.01 0.01 0.02 0.02 0.03 0.03 0.02 0.02
0.01 0.01 0.02 0.02 0.03 0.02 0.02 0.02 0.02 0.02 0.03 0.03 0.03 0.03 0.04 0.04 0.03 0.03 0.03 0.03 0.02 0.01 0.01 0.01 0.02 0.03 0.04 0.05 0.04 0.04 0.02 0.02 0.02 0.02 0.02 0.02 0.02 0.03 0.03 0.03 0.03 0.02 0.01
0.01 0.01 0.01 0.02 0.02 0.02 0.02 0.03 0.03 0.03 0.03 0.04 0.05 0.06 0.05 0.04 0.03 0.03 0.03 0.03 0.02 0.01 0.01 0.01 0.02 0.02 0.03 0.03 0.03 0.04 0.02 0.01 0.02 0.02 0.02 0.02 0.02 0.03 0.03 0.02 0.02 0.02 0.01
0.02 0.01 0.01 0.01 0.02 0.02 0.02 0.02 0.02 0.02 0.02 0.03 0.04 0.05 0.06 0.06 0.04 0.03 0.02 0.02 0.01 0.02 0.02 0.02 0.02 0.02 0.02 0.02 0.03 0.04 0.02 0.02 0.02 0.02 0.01 0.01 0.02 0.02 0.03 0.02 0.02 0.02 0.02
0.03 0.02 0.02 0.02 0.02 0.01 0.01 0.02 0.01 0.01 0.01 0.02 0.02 0.03 0.04 0.06 0.06 0.03 0.01 0.01 0.01 0.01 0.01 0.03 0.02 0.02 0.02 0.02 0.03 0.04 0.03 0.02 0.02 0.01 0.01 0.01 0.01 0.02 0.02 0.03 0.03 0.03 0.02
0.04 0.04 0.04 0.03 0.02 0.02 0.01 0.01 0.01 0.02 0.02 0.02 0.03 0.03 0.04 0.05 0.07 0.04 0.01 0.01 0.02 0.02 0.03 0.03 0.03 0.02 0.02 0.02 0.02 0.03 0.03 0.02 0.02 0.01 0.01 0.01 0.01 0.02 0.02 0.02 0.02 0.02 0.02
0.05 0.07 0.05 0.04 0.03 0.02 0.02 0.02 0.02 0.02 0.03 0.03 0.03 0.03 0.04 0.04 0.05 0.06 0.02 0.02 0.03 0.03 0.03 0.03 0.04 0.04 0.03 0.03 0.02 0.02 0.02 0.02 0.01 0.01 0.01 0.01 0.01 0.02 0.01 0.02 0.02 0.02 0.02
0.04 0.07 0.07 0.06 0.05 0.03 0.02 0.02 0.02 0.02 0.03 0.03 0.02 0.02 0.03 0.04 0.04 0.05 0.03 0.02 0.02 0.04 0.04 0.03 0.03 0.04 0.04 0.04 0.04 0.03 0.02 0.01 0.01 0.01 0.01 0.01 0.01 0.01 0.01 0.01 0.02 0.02 0.03
0.04 0.07 0.08 0.07 0.06 0.05 0.04 0.04 0.03 0.02 0.02 0.02 0.02 0.02 0.03 0.04 0.04 0.05 0.04 0.04 0.04 0.05 0.06 0.06 0.05 0.04 0.05 0.05 0.04 0.04 0.03 0.02 0.02 0.01 0.01 0.01 0.00 0.00 0.00 0.00 0.01 0.01 0.02
MSLP
1005.80 1005.94 1006.11 1006.26 1006.38 1006.47 1006.56 1006.69 1006.89 1007.19 1007.59 1008.08 1008.64 1009.23 1009.80 1010.32 1010.77 1011.15 1011.46 1011.73 1011.98 1012.25 1012.54 1012.87 1013.24 1013.63 1014.01 1014.38 1014.70 1014.97 1015.17 1015.29 1015.34 1015.31 1015.21 1015.05 1014.83 1014.56 1014.25 1013.91 1013.56 1013.22 1012.90
1005.57 1005.78 1005.99 1006.16 1006.27 1006.35 1006.42 1006.53 1006.73 1007.03 1007.46 1008.00 1008.61 1009.24 1009.85 1010.39 1010.84 1011.21 1011.50 1011.75 1011.99 1012.23 1012.52 1012.85 1013.21 1013.59 1013.97 1014.32 1014.63 1014.89 1015.08 1015.22 1015.30 1015.32 1015.30 1015.21 1015.07 1014.87 1014.62 1014.31 1013.96 1013.58 1013.19
1005.25 1005.51 1005.78 1005.98 1006.12 1006.20 1006.26 1006.37 1006.56 1006.89 1007.35 1007.92 1008.58 1009.27 1009.92 1010.50 1010.99 1011.37 1011.67 1011.91 1012.13 1012.37 1012.63 1012.93 1013.26 1013.61 1013.95 1014.26 1014.54 1014.77 1014.96 1015.11 1015.22 1015.30 1015.34 1015.34 1015.28 1015.16 1014.96 1014.68 1014.33 1013.93 1013.49
1004.87 1005.20 1005.51 1005.77 1005.94 1006.04 1006.11 1006.22 1006.43 1006.76 1007.25 1007.86 1008.57 1009.30 1010.01 1010.64 1011.17 1011.58 1011.91 1012.16 1012.38 1012.60 1012.84 1013.10 1013.38 1013.67 1013.96 1014.22 1014.45 1014.65 1014.83 1014.98 1015.12 1015.25 1015.35 1015.42 1015.43 1015.37 1015.22 1014.97 1014.62 1014.20 1013.72
1004.51 1004.89 1005.26 1005.56 1005.78 1005.91 1006.01 1006.14 1006.36 1006.71 1007.21 1007.85 1008.58 1009.35 1010.11 1010.79 1011.36 1011.81 1012.17 1012.44 1012.67 1012.87 1013.08 1013.30 1013.53 1013.76 1013.98 1014.19 1014.37 1014.53 1014.69 1014.85 1015.01 1015.17 1015.31 1015.43 1015.49 1015.47 1015.34 1015.11 1014.77 1014.34 1013.84
1004.24 1004.65 1005.07 1005.43 1005.70 1005.88 1006.02 1006.17 1006.41 1006.77 1007.28 1007.93 1008.67 1009.46 1010.23 1010.94 1011.54 1012.03 1012.41 1012.70 1012.93 1013.12 1013.31 1013.48 1013.66 1013.83 1013.99 1014.14 1014.28 1014.42 1014.56 1014.71 1014.88 1015.06 1015.22 1015.36 1015.43 1015.43 1015.31 1015.09 1014.75 1014.32 1013.82
1004.09 1004.53 1004.99 1005.41 1005.73 1005.97 1006.16 1006.35 1006.62 1006.99 1007.50 1008.13 1008.86 1009.63 1010.40 1011.10 1011.71 1012.20 1012.59 1012.89 1013.11 1013.29 1013.45 1013.59 1013.72 1013.85 1013.96 1014.07 1014.18 1014.30 1014.42 1014.57 1014.74 1014.91 1015.07 1015.20 1015.27 1015.26 1015.14 1014.91 1014.57 1014.15 1013.67
1004.07 1004.54 1005.04 1005.51 1005.89 1006.20 1006.45 1006.69 1006.99 1007.38 1007.88 1008.49 1009.18 1009.91 1010.63 1011.29 1011.86 1012.33 1012.70 1012.98 1013.19 1013.35 1013.48 1013.59 1013.69 1013.78 1013.87 1013.96 1014.05 1014.15 1014.27 1014.41 1014.57 1014.73 1014.88 1014.98 1015.03 1014.99 1014.85 1014.60 1014.27 1013.87 1013.42
1004.16 1004.64 1005.18 1005.70 1006.15 1006.53 1006.85 1007.16 1007.50 1007.90 1008.39 1008.97 1009.60 1010.26 1010.90 1011.49 1011.99 1012.41 1012.72 1012.96 1013.14 1013.27 1013.38 1013.47 1013.55 1013.63 1013.71 1013.79 1013.88 1013.98 1014.11 1014.25 1014.39 1014.54 1014.66 1014.73 1014.74 1014.66 1014.50 1014.25 1013.92 1013.55 1013.14
1004.31 1004.81 1005.37 1005.93 1006.44 1006.89 1007.29 1007.67 1008.06 1008.49 1008.97 1009.51 1010.07 1010.65 1011.19 1011.68 1012.09 1012.41 1012.66 1012.84 1012.98 1013.08 1013.16 1013.24 1013.32 1013.40 1013.49 1013.58 1013.69 1013.80 1013.94 1014.08 1014.22 1014.34 1014.43 1014.48 1014.45 1014.35 1014.17 1013.91 1013.60 1013.25 1012.89
1004.50 1005.00 1005.57 1006.15 1006.71 1007.22 1007.69 1008.13 1008.57 1009.03 1009.51 1010.01 1010.51 1010.99 1011.42 1011.80 1012.10 1012.33 1012.50 1012.62 1012.71 1012.79 1012.87 1012.95 1013.04 1013.14 1013.25 1013.37 1013.50 1013.63 1013.78 1013.93 1014.07 1014.18 1014.25 1014.27 1014.23 1014.11 1013.92 1013.67 1013.37 1013.05 1012.73
1004.70 1005.18 1005.73 1006.31 1006.89 1007.43 1007.95 1008.45 1008.94 1009.43 1009.91 1010.37 1010.81 1011.20 1011.53 1011.80 1012.00 1012.14 1012.24 1012.31 1012.37 1012.44 1012.52 1012.62 1012.74 1012.87 1013.02 1013.17 1013.33 1013.50 1013.66 1013.82 1013.95 1014.06 1014.13 1014.14 1014.08 1013.96 1013.78 1013.54 1013.27 1012.98 1012.69
1004.92 1005.36 1005.87 1006.41 1006.97 1007.52 1008.06 1008.59 1009.10 1009.60 1010.08 1010.51 1010.90 1011.21 1011.46 1011.64 1011.75 1011.83 1011.87 1011.92 1011.97 1012.06 1012.16 1012.31 1012.47 1012.65 1012.83 1013.03 1013.22 1013.41 1013.58 1013.75 1013.89 1014.00 1014.06 1014.08 1014.03 1013.92 1013.76 1013.54 1013.30 1013.04 1012.78
1005.19 1005.57 1006.00 1006.47 1006.97 1007.48 1008.01 1008.53 1009.05 1009.55 1010.00 1010.41 1010.75 1011.00 1011.19 1011.30 1011.36 1011.39 1011.42 1011.46 1011.54 1011.65 1011.81 1012.01 1012.23 1012.46 1012.70 1012.93 1013.15 1013.36 1013.55 1013.71 1013.86 1013.97 1014.04 1014.07 1014.04 1013.96 1013.82 1013.64 1013.43 1013.20 1012.96
1005.55 1005.84 1006.18 1006.55 1006.96 1007.40 1007.87 1008.35 1008.84 1009.31 1009.73 1010.10 1010.39 1010.60 1010.74 1010.80 1010.83 1010.85 1010.88 1010.95 1011.07 1011.24 1011.47 1011.73 1012.02 1012.31 1012.59 1012.86 1013.11 1013.33 1013.52 1013.69 1013.84 1013.96 1014.04 1014.08 1014.08 1014.03 1013.93 1013.79 1013.61 1013.41 1013.20
1006.02 1006.23 1006.46 1006.71 1007.01 1007.35 1007.73 1008.14 1008.57 1008.99 1009.37 1009.69 1009.94 1010.10 1010.19 1010.23 1010.25 1010.27 1010.32 1010.43 1010.60 1010.83 1011.13 1011.46 1011.81 1012.16 1012.49 1012.79 1013.05 1013.28 1013.48 1013.65 1013.80 1013.92 1014.02 1014.09 1014.11 1014.10 1014.04 1013.94 1013.80 1013.63 1013.44
1006.60 1006.74 1006.87 1007.01 1007.19 1007.43 1007.71 1008.04 1008.39 1008.74 1009.06 1009.32 1009.51 1009.62 1009.68 1009.69 1009.69 1009.71 1009.78 1009.92 1010.14 1010.43 1010.78 1011.17 1011.57 1011.97 1012.33 1012.66 1012.94 1013.18 1013.38 1013.55 1013.71 1013.84 1013.96 1014.05 1014.11 1014.14 1014.12 1014.06 1013.96 1013.83 1013.66
1007.28 1007.37 1007.43 1007.49 1007.58 1007.72 1007.91 1008.15 1008.42 1008.69 1008.93 1009.12 1009.24 1009.31 1009.31 1009.28 1009.26 1009.26 1009.33 1009.48 1009.71 1010.03 1010.41 1010.83 1011.27 1011.69 1012.08 1012.43 1012.73 1012.98 1013.20 1013.39 1013.55 1013.71 1013.84 1013.97 1014.07 1014.13 1014.16 1014.14 1014.07 1013.97 1013.83
1008.02 1008.10 1008.13 1008.15 1008.18 1008.25 1008.37 1008.54 1008.73 1008.92 1009.09 1009.20 1009.26 1009.24 1009.18 1009.10 1009.02 1008.98 1009.01 1009.13 1009.35 1009.65 1010.03 1010.45 1010.89 1011.32 1011.73 1012.09 1012.41 1012.69 1012.92 1013.14 1013.33 1013.52 1013.69 1013.85 1013.99 1014.09 1014.16 1014.17 1014.15 1014.07 1013.96
1008.77 1008.88 1008.92 1008.94 1008.96 1009.00 1009.09 1009.21 1009.34 1009.47 1009.56 1009.60 1009.57 1009.48 1009.34 1009.17 1009.01 1008.90 1008.85 1008.90 1009.05 1009.30 1009.63 1010.02 1010.44 1010.86 1011.27 1011.65 1011.99 1012.30 1012.57 1012.83 1013.07 1013.30 1013.52 1013.72 1013.89 1014.04 1014.14 1014.19 1014.19 1014.14 1014.04
1009.48 1009.66 1009.76 1009.82 1009.86 1009.92 1010.01 1010.10 1010.20 1010.28 1010.31 1010.28 1010.17 1009.99 1009.75 1009.48 1009.23 1009.01 1008.86 1008.80 1008.85 1009.01 1009.25 1009.58 1009.95 1010.34 1010.74 1011.12 1011.49 1011.84 1012.17 1012.48 1012.78 1013.06 1013.33 1013.58 1013.80 1013.98 1014.11 1014.19 1014.21 1014.18 1014.09
1010.15 1010.41 1010.59 1010.72 1010.83 1010.93 1011.03 1011.13 1011.21 1011.25 1011.23 1011.13 1010.95 1010.68 1010.35 1009.99 1009.61 1009.28 1009.01 1008.83 1008.75 1008.79 1008.93 1009.16 1009.46 1009.81 1010.19 1010.58 1010.97 1011.36 1011.74 1012.11 1012.47 1012.82 1013.14 1013.44 1013.70 1013.91 1014.07 1014.16 1014.20 1014.18 1014.10
1010.77 1011.12 1011.39 1011.60 1011.77 1011.93 1012.06 1012.17 1012.24 1012.26 1012.19 1012.04 1011.79 1011.45 1011.04 1010.58 1010.11 1009.66 1009.27 1008.96 1008.76 1008.67 1008.69 1008.82 1009.04 1009.34 1009.68 1010.07 1010.48 1010.90 1011.33 1011.75 1012.17 1012.56 1012.93 1013.27 1013.56 1013.80 1013.97 1014.08 1014.12 1014.11 1014.03
1011.38 1011.79 1012.14 1012.42 1012.66 1012.85 1013.01 1013.13 1013.19 1013.18 1013.08 1012.88 1012.58 1012.19 1011.71 1011.18 1010.63 1010.09 1009.60 1009.19 1008.87 1008.66 1008.57 1008.60 1008.74 1008.96 1009.27 1009.63 1010.04 1010.48 1010.93 1011.39 1011.84 1012.27 1012.67 1013.03 1013.34 1013.59 1013.77 1013.89 1013.94 1013.93 1013.86
1011.99 1012.45 1012.85 1013.18 1013.45 1013.67 1013.83 1013.94 1013.98 1013.93 1013.80 1013.56 1013.23 1012.79 1012.28 1011.72 1011.12 1010.53 1009.97 1009.48 1009.07 1008.77 1008.59 1008.52 1008.57 1008.73 1008.97 1009.29 1009.67 1010.10 1010.55 1011.01 1011.47 1011.91 1012.32 1012.68 1012.99 1013.24 1013.42 1013.54 1013.60 1013.60 1013.55
1012.64 1013.12 1013.53 1013.87 1014.15 1014.35 1014.49 1014.57 1014.56 1014.47 1014.30 1014.03 1013.67 1013.23 1012.71 1012.14 1011.53 1010.93 1010.35 1009.81 1009.35 1008.98 1008.72 1008.57 1008.54 1008.61 1008.79 1009.04 1009.37 1009.75 1010.17 1010.60 1011.03 1011.45 1011.83 1012.17 1012.47 1012.70 1012.88 1013.00 1013.07 1013.08 1013.06
Thickness
5764 5763 5762 5760 5757 5753 5750 5748 5745 5743 5741 5737 5733 5729 5728 5728 5728 5728 5727 5727 5726 5725 5724 5723 5722 5721 5720 5719 5718 5715 5714 5712 5712 5709 5707 5708 5709 5709 5709 5710 5709 5709 5709
5758 5758 5758 5756 5754 5750 5748 5745 5743 5741 5738 5735 5731 5728 5727 5726 5726 5725 5725 5723 5722 5722 5721 5720 5720 5719 5717 5716 5715 5713 5711 5710 5709 5706 5702 5700 5701 5704 5706 5706 5706 5706 5706
5754 5753 5753 5752 5750 5747 5744 5743 5741 5739 5736 5733 5729 5726 5723 5722 5720 5720 5720 5720 5719 5718 5718 5717 5717 5716 5715 5713 5712 5712 5710 5707 5706 5705 5702 5697 5695 5697 5700 5702 5703 5703 5703
5753 5751 5750 5748 5747 5746 5743 5741 5738 5736 5733 5731 5727 5723 5720 5718 5718 5717 5717 5716 5716 5715 5714 5714 5714 5713 5712 5711 5711 5710 5709 5707 5704 5703 5703 5702 5700 5696 5694 5697 5699 5700 5700
5750 5748 5747 5746 5744 5742 5738 5737 5735 5732 5730 5728 5726 5722 5719 5717 5715 5715 5713 5712 5712 5712 5712 5711 5711 5710 5710 5709 5708 5708 5707 5706 5704 5702 5701 5699 5698 5697 5694 5692 5694 5696 5697
5747 5745 5744 5743 5740 5738 5736 5734 5732 5729 5727 5726 5724 5721 5717 5715 5713 5712 5710 5709 5709 5709 5709 5709 5708 5708 5707 5706 5706 5706 5705 5705 5703 5702 5701 5700 5698 5695 5694 5691 5690 5691 5693
5741 5739 5738 5737 5736 5734 5732 5730 5727 5725 5724 5723 5720 5719 5717 5715 5713 5711 5709 5707 5706 5706 5707 5707 5706 5706 5705 5704 5704 5703 5702 5702 5702 5701 5700 5700 5699 5698 5695 5692 5689 5688 5690
5735 5734 5734 5734 5733 5731 5729 5727 5725 5722 5720 5718 5717 5716 5715 5713 5712 5710 5708 5706 5706 5706 5706 5705 5705 5704 5703 5702 5701 5701 5700 5700 5700 5700 5699 5698 5698 5697 5696 5693 5689 5686 5686
5730 5728 5728 5728 5728 5727 5725 5724 5722 5719 5717 5716 5714 5713 5712 5710 5709 5708 5707 5706 5706 5706 5705 5704 5703 5703 5702 5701 5700 5698 5698 5698 5698 5697 5697 5696 5696 5695 5695 5693 5691 5687 5683
5723 5722 5721 5721 5721 5721 5721 5719 5717 5715 5713 5712 5711 5711 5710 5708 5706 5705 5704 5704 5704 5704 5703 5702 5701 5700 5700 5699 5698 5697 5696 5696 5695 5695 5694 5693 5693 5693 5692 5691 5690 5689 5685
5716 5717 5715 5715 5716 5715 5714 5713 5711 5710 5708 5707 5706 5706 5706 5705 5703 5702 5701 5701 5701 5701 5701 5700 5699 5698 5697 5696 5695 5695 5694 5693 5693 5692 5692 5691 5691 5691 5690 5689 5687 5686 5684
5711 5711 5710 5709 5709 5708 5708 5706 5706 5705 5704 5703 5702 5701 5701 5700 5699 5699 5699 5699 5698 5698 5698 5697 5696 5695 5694 5694 5693 5692 5692 5691 5691 5690 5689 5689 5689 5688 5687 5686 5684 5683 5682
5703 5703 5703 5702 5702 5702 5702 5701 5701 5700 5699 5698 5697 5695 5695 5695 5695 5695 5695 5695 5695 5694 5694 5694 5693 5692 5692 5691 5691 5690 5690 5689 5689 5689 5688 5687 5686 5685 5684 5683 5682 5681 5680
5696 5695 5695 5695 5695 5695 5695 5695 5695 5695 5694 5693 5691 5690 5690 5690 5691 5691 5690 5690 5690 5689 5689 5689 5690 5689 5689 5688 5688 5687 5687 5687 5687 5687 5686 5685 5685 5684 5683 5682 5680 5678 5676
5690 5690 5689 5689 5689 5689 5689 5689 5688 5688 5688 5687 5686 5686 5685 5685 5686 5685 5685 5685 5685 5685 5685 5685 5686 5686 5686 5686 5685 5685 5684 5683 5683 5683 5683 5683 5683 5682 5681 5680 5678 5676 5674
5684 5683 5683 5683 5683 5683 5683 5683 5682 5682 5682 5681 5681 5681 5680 5680 5680 5681 5681 5681 5681 5681 5681 5681 5682 5682 5684 5684 5683 5682 5681 5680 5679 5679 5679 5680 5680 5679 5678 5678 5677 5676 5673
5677 5677 5677 5676 5676 5676 5677 5676 5676 5676 5675 5674 5674 5674 5674 5674 5675 5675 5675 5676 5676 5676 5676 5677 5677 5678 5680 5680 5679 5678 5677 5677 5676 5676 5676 5676 5677 5676 5675 5675 5674 5673 5672
5671 5671 5671 5670 5671 5671 5671 5671 5670 5669 5668 5668 5668 5669 5669 5669 5669 5669 5669 5670 5671 5671 5671 5672 5673 5673 5675 5674 5674 5673 5673 5672 5672 5673 5673 5672 5672 5672 5671 5671 5670 5670 5670
5665 5665 5665 5665 5665 5665 5664 5663 5662 5661 5661 5661 5662 5663 5663 5663 5663 5663 5663 5664 5665 5666 5666 5667 5668 5669 5670 5670 5669 5668 5667 5667 5667 5668 5669 5669 5668 5668 5667 5667 5666 5666 5666
5658 5658 5658 5658 5657 5658 5657 5656 5655 5654 5654 5655 5656 5657 5657 5658 5657 5657 5658 5659 5660 5661 5661 5662 5663 5664 5665 5664 5664 5662 5662 5662 5662 5663 5664 5664 5664 5664 5662 5662 5662 5661 5662
5651 5651 5651 5650 5650 5650 5650 5648 5648 5648 5650 5650 5651 5651 5652 5652 5652 5652 5653 5653 5654 5655 5655 5656 5658 5658 5659 5659 5658 5657 5658 5658 5658 5659 5660 5660 5660 5659 5658 5658 5658 5659 5659
5643 5643 5642 5641 5642 5642 5641 5641 5641 5643 5643 5644 5645 5645 5645 5646 5647 5646 5647 5648 5648 5649 5649 5649 5651 5652 5653 5653 5653 5652 5653 5653 5653 5654 5655 5656 5654 5654 5653 5653 5654 5654 5653
5634 5635 5634 5633 5633 5633 5633 5633 5634 5636 5636 5635 5636 5637 5638 5638 5640 5640 5641 5641 5642 5643 5643 5643 5644 5646 5647 5648 5648 5648 5647 5647 5648 5649 5650 5649 5649 5648 5648 5648 5648 5648 5648
5625 5625 5625 5624 5624 5625 5625 5625 5626 5627 5626 5626 5627 5629 5629 5630 5632 5634 5635 5635 5636 5637 5637 5638 5639 5640 5641 5642 5643 5643 5642 5642 5641 5642 5643 5642 5641 5642 5642 5643 5643 5644 5644
5615 5616 5615 5615 5615 5616 5616 5617 5617 5618 5617 5618 5619 5621 5622 5623 5624 5626 5628 5630 5631 5633 5633 5635 5635 5636 5637 5638 5638 5638 5638 5638 5637 5637 5636 5636 5636 5636 5636 5637 5638 5638 5638
5605 5605 5605 5606 5606 5607 5608 5608 5609 5609 5609 5609 5611 5613 5614 5616 5617 5619 5621 5624 5626 5627 5629 5630 5631 5632 5633 5633 5632 5632 5632 5631 5631 5631 5632 5631 5631 5631 5632 5632 5632 5632 5633